sat.trackr.live / text

‹ back to catalog

STARLINK-34009

NORAD 63849 · 2025-093P

PAYLOAD ACTIVE UNKNOWN

§ Identity

Operator
Country
US
Launch date
2025-05-07
Launch site
AFETR
Launch vehicle
Mass (kg)
RCS (m²)

Purposes: comms

External: N2YO · Heavens-Above · Gunter

§ Orbital elements

Epoch: 2026-09-20T16:47:09.544992Z

Period
94.27 min
Inclination
43.0013°
Eccentricity
0.0001694
Mean motion
15.27588572 rev/d
Perigee alt
481.9 km
Apogee alt
484.2 km
Semi-major
6,861.2 km
B*
5.6098e-4
RAAN
53.3578°
Arg perigee
269.6129°
Mean anomaly
90.4529°
Rev number
7,783

§ Raw data

STARLINK-340091 63849U 25093P   26263.69941603  .00015211  00000+0  56098-3 0  99962 63849  43.0013  53.3578 0001694 269.6129  90.4529 15.27588572 77833

JSON: /api/v1/satellites/63849 · /tle

For live sub-satellite position, see the globe view (requires WebGL).

§ Visibility from observer

Set your observer location to see the next 7 days of passes ≥ 10°. The values pass through the URL so the page stays shareable.

No JS? Fill the form by hand. The geolocation button needs JavaScript.